Time,TemperatureF,DewpointF,PressureIn,WindDirection,WindDirectionDegrees,WindSpeedMPH,WindSpeedGustMPH,Humidity,HourlyPrecipIn,Conditions,Clouds,dailyrainin,SolarRadiationWatts/m^2,SoftwareType,DateUTC
2013-02-23 00:01:00,22.5,19.9,30.10,SW,220,4.0,9.0,90,0.00,,,0.05,0.0,meteohub,2013-02-23 06:01:00,
2013-02-23 00:06:00,22.6,20.5,30.10,SW,220,3.0,9.0,91,0.00,,,0.00,0.0,meteohub,2013-02-23 06:06:00,
2013-02-23 00:11:00,22.6,20.1,30.10,SW,220,4.0,7.0,90,0.00,,,0.00,0.0,meteohub,2013-02-23 06:11:00,
2013-02-23 00:17:00,22.8,20.3,30.10,SW,220,4.0,5.0,90,0.00,,,0.00,0.0,meteohub,2013-02-23 06:17:00,
2013-02-23 00:22:00,23.2,20.7,30.09,SW,220,5.0,5.0,90,0.00,,,0.00,0.0,meteohub,2013-02-23 06:22:00,
2013-02-23 00:27:00,23.5,21.0,30.09,SW,220,6.0,6.0,90,0.00,,,0.00,0.0,meteohub,2013-02-23 06:27:00,
2013-02-23 00:32:00,24.1,21.6,30.09,SW,220,6.0,6.0,90,0.00,,,0.00,0.0,meteohub,2013-02-23 06:32:00,
2013-02-23 00:37:00,24.4,21.9,30.09,SW,220,6.0,6.0,90,0.00,,,0.00,0.0,meteohub,2013-02-23 06:37:00,
2013-02-23 00:42:00,24.6,22.1,30.08,SW,220,5.0,6.0,90,0.00,,,0.00,0.0,meteohub,2013-02-23 06:42:00,
2013-02-23 00:47:00,24.6,22.1,30.09,SW,220,6.0,6.0,90,0.00,,,0.00,0.0,meteohub,2013-02-23 06:47:00,
2013-02-23 00:52:00,25.0,22.5,30.09,SW,234,8.0,8.0,90,0.00,,,0.00,0.0,meteohub,2013-02-23 06:52:00,
2013-02-23 00:57:00,25.2,22.6,30.09,SW,234,8.0,9.0,90,0.00,,,0.00,0.0,meteohub,2013-02-23 06:57:00,
2013-02-23 01:02:00,25.5,23.0,30.08,SW,234,7.0,9.0,90,0.00,,,0.00,0.0,meteohub,2013-02-23 07:02:00,
2013-02-23 01:07:00,25.9,23.4,30.09,SW,233,7.0,9.0,90,0.00,,,0.00,0.0,meteohub,2013-02-23 07:07:00,
2013-02-23 01:12:00,26.2,23.7,30.09,SW,233,7.0,9.0,90,0.00,,,0.00,0.0,meteohub,2013-02-23 07:12:00,
2013-02-23 01:17:00,26.2,23.7,30.09,SW,234,6.0,9.0,90,0.00,,,0.00,0.0,meteohub,2013-02-23 07:17:00,
2013-02-23 01:22:00,26.4,23.9,30.08,WSW,247,7.0,8.0,90,0.00,,,0.00,0.0,meteohub,2013-02-23 07:22:00,
2013-02-23 01:27:00,26.8,23.9,30.09,WSW,247,7.0,8.0,89,0.00,,,0.00,0.0,meteohub,2013-02-23 07:27:00,
2013-02-23 01:32:00,27.0,24.1,30.09,WSW,247,6.0,8.0,89,0.00,,,0.00,0.0,meteohub,2013-02-23 07:32:00,
2013-02-23 01:37:00,27.3,24.4,30.09,WSW,247,4.0,8.0,89,0.00,,,0.00,0.0,meteohub,2013-02-23 07:37:00,
2013-02-23 01:42:00,27.5,24.6,30.09,WSW,247,6.0,8.0,89,0.00,,,0.00,0.0,meteohub,2013-02-23 07:42:00,
2013-02-23 01:47:00,27.7,24.8,30.09,WSW,247,5.0,7.0,89,0.00,,,0.00,0.0,meteohub,2013-02-23 07:47:00,
2013-02-23 01:52:00,27.3,24.8,30.09,WSW,247,6.0,6.0,90,0.00,,,0.00,0.0,meteohub,2013-02-23 07:52:00,
2013-02-23 01:57:00,27.3,24.8,30.09,WSW,247,6.0,6.0,90,0.00,,,0.00,0.0,meteohub,2013-02-23 07:57:00,
2013-02-23 02:02:00,27.1,24.6,30.08,WSW,247,6.0,7.0,90,0.00,,,0.00,0.0,meteohub,2013-02-23 08:02:00,
2013-02-23 02:07:00,27.1,24.6,30.08,WSW,247,5.0,7.0,90,0.00,,,0.00,0.0,meteohub,2013-02-23 08:07:00,
2013-02-23 02:12:00,27.0,24.6,30.08,WSW,247,6.0,7.0,91,0.00,,,0.00,0.0,meteohub,2013-02-23 08:12:00,
2013-02-23 02:18:00,27.1,24.6,30.08,WSW,247,5.0,7.0,90,0.00,,,0.00,0.0,meteohub,2013-02-23 08:18:00,
2013-02-23 02:23:00,27.1,24.6,30.07,WSW,247,5.0,7.0,90,0.00,,,0.00,0.0,meteohub,2013-02-23 08:23:00,
2013-02-23 02:28:00,27.0,24.4,30.07,WSW,247,7.0,7.0,90,0.00,,,0.00,0.0,meteohub,2013-02-23 08:28:00,
2013-02-23 02:33:00,27.0,24.4,30.07,WSW,247,5.0,7.0,90,0.00,,,0.00,0.0,meteohub,2013-02-23 08:33:00,
2013-02-23 02:38:00,27.0,24.4,30.06,WSW,247,5.0,7.0,90,0.00,,,0.00,0.0,meteohub,2013-02-23 08:38:00,
2013-02-23 02:43:00,27.0,24.4,30.05,WSW,247,5.0,7.0,90,0.00,,,0.00,0.0,meteohub,2013-02-23 08:43:00,
2013-02-23 02:48:00,27.0,24.4,30.05,WSW,247,5.0,6.0,90,0.00,,,0.00,0.0,meteohub,2013-02-23 08:48:00,
2013-02-23 02:53:00,27.0,24.4,30.04,WSW,247,4.0,6.0,90,0.00,,,0.00,0.0,meteohub,2013-02-23 08:53:00,
2013-02-23 02:58:00,27.0,24.4,30.04,WSW,247,4.0,6.0,90,0.00,,,0.00,0.0,meteohub,2013-02-23 08:58:00,
2013-02-23 03:03:00,27.0,24.4,30.04,WSW,247,4.0,6.0,90,0.00,,,0.00,0.0,meteohub,2013-02-23 09:03:00,
2013-02-23 03:08:00,27.0,24.4,30.04,WSW,247,6.0,6.0,90,0.00,,,0.00,0.0,meteohub,2013-02-23 09:08:00,
2013-02-23 03:13:00,27.0,24.4,30.04,WSW,247,7.0,7.0,90,0.00,,,0.00,0.0,meteohub,2013-02-23 09:13:00,
2013-02-23 03:18:00,27.0,24.4,30.03,WSW,244,6.0,7.0,90,0.00,,,0.00,0.0,meteohub,2013-02-23 09:18:00,
2013-02-23 03:23:00,27.0,24.4,30.03,WSW,244,5.0,8.0,90,0.00,,,0.00,0.0,meteohub,2013-02-23 09:23:00,
2013-02-23 03:28:00,27.0,24.4,30.02,WSW,244,4.0,8.0,90,0.00,,,0.00,0.0,meteohub,2013-02-23 09:28:00,
2013-02-23 03:33:00,27.0,24.6,30.02,WSW,244,4.0,8.0,91,0.00,,,0.00,0.0,meteohub,2013-02-23 09:33:00,
2013-02-23 03:38:00,27.0,24.6,30.02,WSW,244,3.0,6.0,91,0.00,,,0.00,0.0,meteohub,2013-02-23 09:38:00,
2013-02-23 03:43:00,27.0,24.6,30.02,WSW,244,3.0,5.0,91,0.00,,,0.00,0.0,meteohub,2013-02-23 09:43:00,
2013-02-23 03:48:00,27.1,24.8,30.02,WSW,244,4.0,5.0,91,0.00,,,0.00,0.0,meteohub,2013-02-23 09:48:00,
2013-02-23 03:53:00,27.3,25.0,30.02,WSW,245,5.0,5.0,91,0.00,,,0.00,0.0,meteohub,2013-02-23 09:53:00,
2013-02-23 03:58:00,27.5,25.0,30.01,WSW,245,3.0,5.0,90,0.00,,,0.00,0.0,meteohub,2013-02-23 09:58:00,
2013-02-23 04:03:00,27.5,25.0,30.01,WSW,245,2.0,5.0,90,0.00,,,0.00,0.0,meteohub,2013-02-23 10:03:00,
2013-02-23 04:08:00,27.5,25.0,30.00,WSW,244,5.0,5.0,90,0.00,,,0.00,0.0,meteohub,2013-02-23 10:08:00,
2013-02-23 04:13:00,27.5,25.2,30.00,WSW,242,6.0,6.0,91,0.00,,,0.00,0.0,meteohub,2013-02-23 10:13:00,
2013-02-23 04:18:00,27.5,25.0,29.99,WSW,242,4.0,7.0,90,0.00,,,0.00,0.0,meteohub,2013-02-23 10:18:00,
2013-02-23 04:23:00,27.3,24.8,30.00,WSW,242,3.0,7.0,90,0.00,,,0.00,0.0,meteohub,2013-02-23 10:23:00,
2013-02-23 04:28:00,27.1,24.8,30.00,WSW,242,4.0,7.0,91,0.00,,,0.00,0.0,meteohub,2013-02-23 10:28:00,
2013-02-23 04:33:00,27.1,24.8,29.99,WSW,242,4.0,6.0,91,0.00,,,0.00,0.0,meteohub,2013-02-23 10:33:00,
2013-02-23 04:38:00,27.1,24.8,29.99,WSW,242,3.0,5.0,91,0.00,,,0.00,0.0,meteohub,2013-02-23 10:38:00,
2013-02-23 04:43:00,27.1,24.8,29.99,WSW,242,5.0,5.0,91,0.00,,,0.00,0.0,meteohub,2013-02-23 10:43:00,
2013-02-23 04:48:00,27.1,24.8,29.98,WSW,240,1.0,5.0,91,0.00,,,0.00,0.0,meteohub,2013-02-23 10:48:00,
2013-02-23 04:53:00,27.1,24.8,29.97,SSW,213,2.0,5.0,91,0.00,,,0.00,0.0,meteohub,2013-02-23 10:53:00,
2013-02-23 04:59:00,27.0,24.6,29.97,SSW,211,2.0,5.0,91,0.00,,,0.00,0.0,meteohub,2013-02-23 10:59:00,
2013-02-23 05:04:00,27.0,24.6,29.97,SSW,210,0.0,5.0,91,0.00,,,0.00,0.0,meteohub,2013-02-23 11:04:00,
2013-02-23 05:09:00,27.1,24.8,29.97,SSW,210,1.0,5.0,91,0.00,,,0.00,0.0,meteohub,2013-02-23 11:09:00,
2013-02-23 05:14:00,27.1,24.8,29.97,SSW,210,1.0,5.0,91,0.00,,,0.00,0.0,meteohub,2013-02-23 11:14:00,
2013-02-23 05:19:00,27.1,24.8,29.97,SSW,209,3.0,4.0,91,0.00,,,0.00,0.0,meteohub,2013-02-23 11:19:00,
2013-02-23 05:24:00,27.0,24.6,29.97,SSW,209,1.0,4.0,91,0.00,,,0.00,0.0,meteohub,2013-02-23 11:24:00,
2013-02-23 05:29:00,27.0,24.6,29.96,SSW,209,3.0,4.0,91,0.00,,,0.00,0.0,meteohub,2013-02-23 11:29:00,
2013-02-23 05:34:00,26.8,24.4,29.97,SSW,209,3.0,4.0,91,0.00,,,0.00,0.0,meteohub,2013-02-23 11:34:00,
2013-02-23 05:39:00,26.4,24.1,29.97,SSW,209,3.0,3.0,91,0.00,,,0.00,0.0,meteohub,2013-02-23 11:39:00,
2013-02-23 05:44:00,26.2,23.9,29.97,SSW,209,3.0,4.0,91,0.00,,,0.00,0.0,meteohub,2013-02-23 11:44:00,
2013-02-23 05:49:00,26.1,23.7,29.97,SSW,209,2.0,4.0,91,0.00,,,0.00,0.0,meteohub,2013-02-23 11:49:00,
2013-02-23 05:54:00,25.9,23.5,29.97,SSW,209,3.0,4.0,91,0.00,,,0.00,0.0,meteohub,2013-02-23 11:54:00,
2013-02-23 05:59:00,25.7,23.4,29.97,SSW,209,2.0,4.0,91,0.00,,,0.00,0.0,meteohub,2013-02-23 11:59:00,
2013-02-23 06:04:00,25.3,23.0,29.96,SSW,206,0.0,5.0,91,0.00,,,0.00,0.0,meteohub,2013-02-23 12:04:00,
2013-02-23 06:09:00,25.3,23.0,29.96,South,190,2.0,5.0,91,0.00,,,0.00,0.0,meteohub,2013-02-23 12:09:00,
2013-02-23 06:14:00,25.3,23.0,29.96,South,190,0.0,5.0,91,0.00,,,0.00,0.0,meteohub,2013-02-23 12:14:00,
2013-02-23 06:19:00,25.5,23.2,29.96,South,190,1.0,3.0,91,0.00,,,0.00,0.0,meteohub,2013-02-23 12:19:00,
2013-02-23 06:24:00,26.1,24.1,29.96,South,186,7.0,7.0,92,0.00,,,0.00,0.0,meteohub,2013-02-23 12:24:00,
2013-02-23 06:29:00,26.4,24.4,29.96,SSW,194,7.0,7.0,92,0.00,,,0.00,0.0,meteohub,2013-02-23 12:29:00,
2013-02-23 06:34:00,26.4,24.1,29.96,SSW,198,5.0,8.0,91,0.00,,,0.00,0.0,meteohub,2013-02-23 12:34:00,
2013-02-23 06:39:00,26.4,24.1,29.97,SSW,198,6.0,8.0,91,0.00,,,0.00,0.0,meteohub,2013-02-23 12:39:00,
2013-02-23 06:44:00,26.4,24.1,29.97,SSW,199,5.0,7.0,91,0.00,,,0.00,0.0,meteohub,2013-02-23 12:44:00,
2013-02-23 06:49:00,26.4,24.4,29.97,SSW,199,4.0,7.0,92,0.00,,,0.00,0.0,meteohub,2013-02-23 12:49:00,
2013-02-23 06:55:00,26.4,24.4,29.96,SSW,199,3.0,6.0,92,0.00,,,0.00,0.0,meteohub,2013-02-23 12:55:00,
2013-02-23 07:00:00,26.6,24.6,29.96,SSW,199,3.0,6.0,92,0.00,,,0.00,0.0,meteohub,2013-02-23 13:00:00,
2013-02-23 07:05:00,26.8,24.8,29.96,SSW,203,3.0,6.0,92,0.00,,,0.00,0.0,meteohub,2013-02-23 13:05:00,
2013-02-23 07:10:00,26.8,24.8,29.97,SSW,203,0.0,6.0,92,0.00,,,0.00,0.0,meteohub,2013-02-23 13:10:00,
2013-02-23 07:15:00,26.8,24.8,29.97,SSW,203,3.0,6.0,92,0.00,,,0.00,0.0,meteohub,2013-02-23 13:15:00,
2013-02-23 07:20:00,26.8,24.8,29.96,SSW,203,2.0,4.0,92,0.00,,,0.00,0.0,meteohub,2013-02-23 13:20:00,
2013-02-23 07:25:00,26.8,24.8,29.96,SSW,203,3.0,4.0,92,0.00,,,0.00,0.0,meteohub,2013-02-23 13:25:00,
2013-02-23 07:30:00,26.8,24.8,29.96,SSW,203,1.0,4.0,92,0.00,,,0.00,0.0,meteohub,2013-02-23 13:30:00,
2013-02-23 07:35:00,26.8,24.8,29.96,SSW,203,2.0,4.0,92,0.00,,,0.00,5.0,meteohub,2013-02-23 13:35:00,
2013-02-23 07:40:00,26.8,24.8,29.95,SSW,203,4.0,4.0,92,0.00,,,0.00,9.0,meteohub,2013-02-23 13:40:00,
2013-02-23 07:45:00,27.0,25.0,29.95,SSW,203,4.0,5.0,92,0.00,,,0.00,14.0,meteohub,2013-02-23 13:45:00,
2013-02-23 07:50:00,27.3,25.3,29.94,SSW,203,6.0,6.0,92,0.00,,,0.00,19.0,meteohub,2013-02-23 13:50:00,
2013-02-23 07:55:00,27.7,25.7,29.94,SSW,207,7.0,8.0,92,0.00,,,0.00,25.0,meteohub,2013-02-23 13:55:00,
2013-02-23 08:00:00,28.0,26.1,29.94,SSW,193,7.0,9.0,92,0.00,,,0.00,35.0,meteohub,2013-02-23 14:00:00,
2013-02-23 08:05:00,28.2,26.2,29.94,SSW,193,6.0,9.0,92,0.00,,,0.00,49.0,meteohub,2013-02-23 14:05:00,
2013-02-23 08:10:00,28.4,26.4,29.93,SSW,194,8.0,9.0,92,0.00,,,0.00,51.0,meteohub,2013-02-23 14:10:00,
2013-02-23 08:15:00,28.8,26.4,29.93,SSW,193,9.0,11.0,91,0.00,,,0.00,58.0,meteohub,2013-02-23 14:15:00,
2013-02-23 08:20:00,28.9,26.6,29.94,SSW,192,7.0,11.0,91,0.00,,,0.00,69.0,meteohub,2013-02-23 14:20:00,
2013-02-23 08:26:00,28.9,26.6,29.93,SSW,196,9.0,11.0,91,0.00,,,0.00,79.0,meteohub,2013-02-23 14:26:00,
2013-02-23 08:31:00,29.1,26.8,29.93,SSW,194,9.0,13.0,91,0.00,,,0.00,91.0,meteohub,2013-02-23 14:31:00,
2013-02-23 08:36:00,29.1,26.8,29.94,SSW,201,11.0,13.0,91,0.00,,,0.00,100.0,meteohub,2013-02-23 14:36:00,
2013-02-23 08:41:00,29.5,27.1,29.93,SSW,204,12.0,12.0,91,0.00,,,0.00,109.0,meteohub,2013-02-23 14:41:00,
2013-02-23 08:46:00,29.7,27.3,29.93,SSW,199,12.0,14.0,91,0.00,,,0.00,125.0,meteohub,2013-02-23 14:46:00,
2013-02-23 08:51:00,29.8,27.5,29.92,SSW,196,9.0,14.0,91,0.00,,,0.00,135.0,meteohub,2013-02-23 14:51:00,
2013-02-23 08:56:00,30.0,27.7,29.93,SSW,200,11.0,14.0,91,0.00,,,0.00,148.0,meteohub,2013-02-23 14:56:00,
2013-02-23 09:01:00,30.0,27.7,29.93,SSW,200,13.0,15.0,91,0.00,,,0.00,160.0,meteohub,2013-02-23 15:01:00,
2013-02-23 09:06:00,30.2,27.9,29.92,SSW,204,11.0,15.0,91,0.00,,,0.00,186.0,meteohub,2013-02-23 15:06:00,
2013-02-23 09:11:00,30.4,28.0,29.93,SSW,211,12.0,15.0,91,0.00,,,0.00,179.0,meteohub,2013-02-23 15:11:00,
2013-02-23 09:16:00,30.4,28.0,29.93,SSW,206,11.0,15.0,91,0.00,,,0.00,206.0,meteohub,2013-02-23 15:16:00,
2013-02-23 09:21:00,30.4,28.0,29.93,SSW,208,14.0,15.0,91,0.00,,,0.00,223.0,meteohub,2013-02-23 15:21:00,
2013-02-23 09:26:00,30.6,28.2,29.94,SSW,212,11.0,15.0,91,0.00,,,0.00,236.0,meteohub,2013-02-23 15:26:00,
2013-02-23 09:31:00,30.6,28.2,29.94,SSW,212,13.0,17.0,91,0.00,,,0.00,248.0,meteohub,2013-02-23 15:31:00,
2013-02-23 09:36:00,30.6,28.2,29.94,SSW,213,16.0,17.0,91,0.00,,,0.00,248.0,meteohub,2013-02-23 15:36:00,
2013-02-23 09:41:00,30.7,28.4,29.93,SSW,211,10.0,18.0,91,0.00,,,0.00,262.0,meteohub,2013-02-23 15:41:00,
2013-02-23 09:46:00,30.7,28.4,29.92,SSW,211,13.0,18.0,91,0.00,,,0.00,279.0,meteohub,2013-02-23 15:46:00,
2013-02-23 09:51:00,30.7,28.4,29.92,SSW,208,13.0,18.0,91,0.00,,,0.00,299.0,meteohub,2013-02-23 15:51:00,
2013-02-23 09:56:00,30.9,28.6,29.92,SSW,207,14.0,17.0,91,0.00,,,0.00,302.0,meteohub,2013-02-23 15:56:00,
2013-02-23 10:01:00,30.9,28.6,29.92,SSW,212,13.0,17.0,91,0.00,,,0.00,318.0,meteohub,2013-02-23 16:01:00,
2013-02-23 10:06:00,31.1,28.8,29.92,SW,216,17.0,17.0,91,0.00,,,0.00,332.0,meteohub,2013-02-23 16:06:00,
2013-02-23 10:12:00,31.1,28.8,29.92,SW,218,16.0,17.0,91,0.00,,,0.00,339.0,meteohub,2013-02-23 16:12:00,
2013-02-23 10:17:00,31.3,28.9,29.92,SW,215,15.0,18.0,91,0.00,,,0.00,345.0,meteohub,2013-02-23 16:17:00,
2013-02-23 10:22:00,31.3,28.9,29.91,SSW,212,15.0,18.0,91,0.00,,,0.00,359.0,meteohub,2013-02-23 16:22:00,
2013-02-23 10:27:00,31.5,29.1,29.92,SSW,213,13.0,18.0,91,0.00,,,0.00,383.0,meteohub,2013-02-23 16:27:00,
2013-02-23 10:32:00,31.5,29.1,29.91,SSW,213,12.0,17.0,91,0.00,,,0.00,401.0,meteohub,2013-02-23 16:32:00,
2013-02-23 10:37:00,31.6,29.3,29.91,SSW,212,11.0,16.0,91,0.00,,,0.00,417.0,meteohub,2013-02-23 16:37:00,
2013-02-23 10:42:00,31.8,29.5,29.91,SSW,210,12.0,16.0,91,0.00,,,0.00,443.0,meteohub,2013-02-23 16:42:00,
2013-02-23 10:47:00,32.0,29.7,29.90,SSW,200,12.0,15.0,91,0.00,,,0.00,459.0,meteohub,2013-02-23 16:47:00,
2013-02-23 10:52:00,32.2,29.8,29.90,SSW,204,12.0,14.0,91,0.00,,,0.00,492.0,meteohub,2013-02-23 16:52:00,
2013-02-23 10:57:00,32.4,30.0,29.90,SSW,206,11.0,14.0,91,0.00,,,0.00,503.0,meteohub,2013-02-23 16:57:00,
2013-02-23 11:02:00,32.5,30.2,29.91,SSW,206,11.0,14.0,91,0.00,,,0.00,508.0,meteohub,2013-02-23 17:02:00,
2013-02-23 11:07:00,32.7,30.4,29.90,SSW,197,8.0,13.0,91,0.01,,,0.01,517.0,meteohub,2013-02-23 17:07:00,
2013-02-23 11:12:00,32.9,30.4,29.90,SSW,194,10.0,13.0,90,0.01,,,0.01,541.0,meteohub,2013-02-23 17:12:00,
2013-02-23 11:17:00,33.1,30.4,29.91,SSW,204,12.0,13.0,90,0.01,,,0.01,561.0,meteohub,2013-02-23 17:17:00,
2013-02-23 11:22:00,33.3,30.6,29.90,SSW,197,12.0,13.0,90,0.01,,,0.01,543.0,meteohub,2013-02-23 17:22:00,
2013-02-23 11:27:00,33.4,30.6,29.91,SSW,198,7.0,13.0,89,0.01,,,0.01,559.0,meteohub,2013-02-23 17:27:00,
2013-02-23 11:32:00,33.4,30.6,29.90,SSW,199,11.0,13.0,89,0.01,,,0.01,550.0,meteohub,2013-02-23 17:32:00,
2013-02-23 11:37:00,33.6,30.9,29.91,SSW,205,11.0,14.0,90,0.01,,,0.01,587.0,meteohub,2013-02-23 17:37:00,
2013-02-23 11:42:00,33.6,30.7,29.91,SSW,211,14.0,17.0,89,0.01,,,0.01,566.0,meteohub,2013-02-23 17:42:00,
2013-02-23 11:47:00,33.6,30.7,29.90,SSW,208,10.0,17.0,89,0.01,,,0.01,577.0,meteohub,2013-02-23 17:47:00,
2013-02-23 11:52:00,33.8,30.9,29.91,SW,217,13.0,17.0,89,0.01,,,0.01,555.0,meteohub,2013-02-23 17:52:00,
2013-02-23 11:57:00,33.8,30.9,29.90,SSW,211,12.0,17.0,89,0.01,,,0.01,775.0,meteohub,2013-02-23 17:57:00,
2013-02-23 12:02:00,34.0,31.1,29.89,SSW,213,10.0,17.0,89,0.00,,,0.01,751.0,meteohub,2013-02-23 18:02:00,
2013-02-23 12:07:00,34.2,30.9,29.88,SSW,211,10.0,17.0,88,0.00,,,0.01,754.0,meteohub,2013-02-23 18:07:00,
2013-02-23 12:12:00,34.2,30.7,29.88,SSW,200,13.0,15.0,87,0.00,,,0.01,763.0,meteohub,2013-02-23 18:12:00,
2013-02-23 12:17:00,34.3,30.9,29.88,SSW,209,9.0,14.0,87,0.00,,,0.01,766.0,meteohub,2013-02-23 18:17:00,
2013-02-23 12:23:00,34.3,30.9,29.88,SSW,197,15.0,15.0,87,0.00,,,0.01,731.0,meteohub,2013-02-23 18:23:00,
2013-02-23 12:28:00,34.2,30.7,29.87,SSW,198,13.0,15.0,87,0.00,,,0.01,777.0,meteohub,2013-02-23 18:28:00,
2013-02-23 12:33:00,34.2,30.9,29.87,South,190,13.0,15.0,88,0.00,,,0.01,780.0,meteohub,2013-02-23 18:33:00,
2013-02-23 12:38:00,34.3,30.9,29.86,SSW,201,11.0,15.0,87,0.00,,,0.01,782.0,meteohub,2013-02-23 18:38:00,
2013-02-23 12:43:00,34.3,30.9,29.86,SSW,200,11.0,16.0,87,0.00,,,0.01,782.0,meteohub,2013-02-23 18:43:00,
2013-02-23 12:48:00,34.5,31.3,29.86,SSW,202,14.0,16.0,88,0.00,,,0.01,786.0,meteohub,2013-02-23 18:48:00,
2013-02-23 12:53:00,34.5,31.1,29.86,SSW,198,10.0,17.0,87,0.00,,,0.01,786.0,meteohub,2013-02-23 18:53:00,
2013-02-23 12:58:00,34.5,31.3,29.85,South,191,11.0,17.0,88,0.00,,,0.01,788.0,meteohub,2013-02-23 18:58:00,
2013-02-23 13:03:00,34.9,31.5,29.84,SSW,196,12.0,17.0,87,0.00,,,0.01,788.0,meteohub,2013-02-23 19:03:00,
2013-02-23 13:08:00,34.9,31.5,29.84,SSW,196,13.0,15.0,87,0.00,,,0.01,791.0,meteohub,2013-02-23 19:08:00,
2013-02-23 13:14:00,35.1,31.3,29.83,SSW,202,8.0,14.0,86,0.00,,,0.01,786.0,meteohub,2013-02-23 19:14:00,
2013-02-23 13:19:00,35.2,31.8,29.83,South,190,10.0,16.0,87,0.00,,,0.01,788.0,meteohub,2013-02-23 19:19:00,
2013-02-23 13:24:00,35.4,32.0,29.83,South,188,8.0,16.0,87,0.00,,,0.01,786.0,meteohub,2013-02-23 19:24:00,
2013-02-23 13:29:00,35.8,32.4,29.82,South,188,10.0,14.0,87,0.00,,,0.01,782.0,meteohub,2013-02-23 19:29:00,
2013-02-23 13:34:00,36.0,32.2,29.81,South,186,9.0,13.0,86,0.00,,,0.01,780.0,meteohub,2013-02-23 19:34:00,
2013-02-23 13:39:00,36.0,32.2,29.82,South,190,10.0,13.0,86,0.00,,,0.01,775.0,meteohub,2013-02-23 19:39:00,
2013-02-23 13:44:00,35.8,32.0,29.81,SSW,196,10.0,13.0,86,0.00,,,0.01,772.0,meteohub,2013-02-23 19:44:00,
2013-02-23 13:49:00,35.8,32.0,29.81,SSW,194,9.0,14.0,86,0.00,,,0.01,768.0,meteohub,2013-02-23 19:49:00,
2013-02-23 13:54:00,36.0,32.2,29.81,SSW,194,12.0,14.0,86,0.00,,,0.01,765.0,meteohub,2013-02-23 19:54:00,
2013-02-23 13:59:00,36.1,32.4,29.81,South,189,12.0,14.0,86,0.00,,,0.01,758.0,meteohub,2013-02-23 19:59:00,
2013-02-23 14:05:00,36.3,32.5,29.80,South,185,9.0,12.0,86,0.00,,,0.01,751.0,meteohub,2013-02-23 20:05:00,
2013-02-23 14:10:00,36.3,32.2,29.80,South,187,11.0,14.0,85,0.00,,,0.01,747.0,meteohub,2013-02-23 20:10:00,
2013-02-23 14:15:00,36.3,32.2,29.80,South,184,9.0,14.0,85,0.00,,,0.01,742.0,meteohub,2013-02-23 20:15:00,
2013-02-23 14:20:00,36.5,32.2,29.79,SSW,192,11.0,15.0,84,0.00,,,0.01,731.0,meteohub,2013-02-23 20:20:00,
2013-02-23 14:25:00,36.7,32.4,29.79,South,189,10.0,15.0,84,0.00,,,0.01,724.0,meteohub,2013-02-23 20:25:00,
2013-02-23 14:30:00,36.5,32.2,29.79,South,182,11.0,15.0,84,0.00,,,0.01,715.0,meteohub,2013-02-23 20:30:00,
2013-02-23 14:35:00,36.3,32.2,29.79,South,187,13.0,16.0,85,0.00,,,0.01,708.0,meteohub,2013-02-23 20:35:00,
2013-02-23 14:40:00,36.3,32.2,29.78,South,182,11.0,16.0,85,0.00,,,0.01,700.0,meteohub,2013-02-23 20:40:00,
2013-02-23 14:45:00,36.3,32.2,29.78,South,175,6.0,16.0,85,0.00,,,0.01,691.0,meteohub,2013-02-23 20:45:00,
2013-02-23 14:50:00,36.3,32.0,29.77,South,182,9.0,14.0,84,0.00,,,0.01,680.0,meteohub,2013-02-23 20:50:00,
2013-02-23 14:56:00,36.3,32.0,29.76,South,180,6.0,13.0,84,0.00,,,0.01,671.0,meteohub,2013-02-23 20:56:00,
2013-02-23 15:01:00,36.5,32.4,29.76,South,174,5.0,12.0,85,0.00,,,0.01,659.0,meteohub,2013-02-23 21:01:00,
2013-02-23 15:06:00,36.5,32.2,29.76,South,176,4.0,10.0,84,0.00,,,0.01,647.0,meteohub,2013-02-23 21:06:00,
2013-02-23 15:11:00,36.5,32.2,29.75,SSE,167,5.0,10.0,84,0.00,,,0.01,636.0,meteohub,2013-02-23 21:11:00,
2013-02-23 15:16:00,36.5,32.4,29.75,SSE,155,0.0,10.0,85,0.00,,,0.01,626.0,meteohub,2013-02-23 21:16:00,
2013-02-23 15:21:00,36.3,32.2,29.75,SSE,153,2.0,10.0,85,0.00,,,0.01,613.0,meteohub,2013-02-23 21:21:00,
2013-02-23 15:26:00,36.3,32.2,29.75,SSE,153,1.0,9.0,85,0.00,,,0.01,605.0,meteohub,2013-02-23 21:26:00,
2013-02-23 15:31:00,36.3,32.5,29.75,SSE,152,3.0,5.0,86,0.00,,,0.01,592.0,meteohub,2013-02-23 21:31:00,
2013-02-23 15:36:00,36.5,32.7,29.74,SE,140,1.0,5.0,86,0.00,,,0.01,580.0,meteohub,2013-02-23 21:36:00,
2013-02-23 15:41:00,36.7,32.5,29.74,SSE,161,2.0,8.0,85,0.00,,,0.01,559.0,meteohub,2013-02-23 21:41:00,
2013-02-23 15:47:00,36.7,32.5,29.74,SE,144,2.0,8.0,85,0.00,,,0.01,547.0,meteohub,2013-02-23 21:47:00,
2013-02-23 15:52:00,36.9,32.7,29.73,SSE,158,2.0,6.0,85,0.00,,,0.01,529.0,meteohub,2013-02-23 21:52:00,
2013-02-23 15:57:00,36.9,32.5,29.73,SE,145,4.0,6.0,84,0.00,,,0.01,515.0,meteohub,2013-02-23 21:57:00,
2013-02-23 16:02:00,37.0,32.7,29.74,SSE,158,2.0,6.0,84,0.00,,,0.01,499.0,meteohub,2013-02-23 22:02:00,
2013-02-23 16:07:00,37.0,32.9,29.74,SSE,157,2.0,6.0,85,0.00,,,0.01,485.0,meteohub,2013-02-23 22:07:00,
2013-02-23 16:12:00,37.2,32.9,29.73,SE,144,2.0,6.0,84,0.00,,,0.01,471.0,meteohub,2013-02-23 22:12:00,
2013-02-23 16:17:00,37.2,32.9,29.73,SE,135,5.0,9.0,84,0.00,,,0.01,454.0,meteohub,2013-02-23 22:17:00,
2013-02-23 16:22:00,37.2,32.9,29.72,SE,138,2.0,10.0,84,0.00,,,0.01,438.0,meteohub,2013-02-23 22:22:00,
2013-02-23 16:27:00,37.2,33.1,29.72,SE,131,6.0,10.0,85,0.00,,,0.01,420.0,meteohub,2013-02-23 22:27:00,
2013-02-23 16:32:00,37.2,33.1,29.71,SE,146,2.0,8.0,85,0.00,,,0.01,404.0,meteohub,2013-02-23 22:32:00,
2013-02-23 16:37:00,37.6,33.4,29.71,SE,144,0.0,7.0,85,0.00,,,0.01,387.0,meteohub,2013-02-23 22:37:00,
2013-02-23 16:42:00,37.8,33.6,29.71,SSE,149,2.0,7.0,85,0.00,,,0.01,367.0,meteohub,2013-02-23 22:42:00,
2013-02-23 16:47:00,37.9,33.6,29.71,SE,146,3.0,5.0,84,0.00,,,0.01,352.0,meteohub,2013-02-23 22:47:00,
2013-02-23 16:52:00,38.1,33.4,29.71,SE,141,2.0,5.0,83,0.00,,,0.01,334.0,meteohub,2013-02-23 22:52:00,
2013-02-23 16:57:00,38.1,33.4,29.71,SE,141,5.0,7.0,83,0.00,,,0.01,316.0,meteohub,2013-02-23 22:57:00,
2013-02-23 17:02:00,38.3,33.6,29.70,SE,146,3.0,7.0,83,0.00,,,0.01,302.0,meteohub,2013-02-23 23:02:00,
2013-02-23 17:07:00,38.3,33.6,29.70,SE,141,1.0,7.0,83,0.00,,,0.01,285.0,meteohub,2013-02-23 23:07:00,
2013-02-23 17:12:00,38.1,33.4,29.71,SE,146,2.0,6.0,83,0.00,,,0.01,265.0,meteohub,2013-02-23 23:12:00,
2013-02-23 17:17:00,38.1,33.4,29.70,SE,138,3.0,6.0,83,0.00,,,0.01,244.0,meteohub,2013-02-23 23:17:00,
2013-02-23 17:22:00,37.9,33.6,29.70,SE,134,4.0,6.0,84,0.00,,,0.01,221.0,meteohub,2013-02-23 23:22:00,
2013-02-23 17:27:00,37.9,33.6,29.70,SE,132,7.0,9.0,84,0.00,,,0.01,199.0,meteohub,2013-02-23 23:27:00,
2013-02-23 17:32:00,37.8,33.6,29.70,SE,135,3.0,9.0,85,0.00,,,0.01,176.0,meteohub,2013-02-23 23:32:00,
2013-02-23 17:38:00,37.8,33.6,29.69,SE,131,7.0,9.0,85,0.00,,,0.01,153.0,meteohub,2013-02-23 23:38:00,
2013-02-23 17:43:00,37.9,34.2,29.69,SE,129,10.0,10.0,86,0.00,,,0.01,132.0,meteohub,2013-02-23 23:43:00,
2013-02-23 17:48:00,38.1,34.0,29.69,SE,129,9.0,12.0,85,0.00,,,0.01,111.0,meteohub,2013-02-23 23:48:00,
2013-02-23 17:53:00,38.1,34.0,29.69,SE,128,10.0,12.0,85,0.00,,,0.01,91.0,meteohub,2013-02-23 23:53:00,
2013-02-23 17:58:00,38.1,34.0,29.69,SE,130,9.0,12.0,85,0.00,,,0.01,72.0,meteohub,2013-02-23 23:58:00,
2013-02-23 18:03:00,38.1,34.3,29.68,SE,126,10.0,11.0,86,0.00,,,0.01,60.0,meteohub,2013-02-24 00:03:00,
2013-02-23 18:08:00,38.1,34.3,29.68,ESE,122,10.0,11.0,86,0.00,,,0.01,44.0,meteohub,2013-02-24 00:08:00,
2013-02-23 18:13:00,38.1,34.3,29.68,SE,126,8.0,13.0,86,0.00,,,0.01,32.0,meteohub,2013-02-24 00:13:00,
2013-02-23 18:18:00,37.9,34.2,29.69,SE,126,9.0,13.0,86,0.00,,,0.01,21.0,meteohub,2013-02-24 00:18:00,
2013-02-23 18:23:00,37.8,34.0,29.69,SE,125,7.0,13.0,86,0.00,,,0.01,14.0,meteohub,2013-02-24 00:23:00,
2013-02-23 18:28:00,37.6,34.0,29.69,SE,128,8.0,12.0,87,0.00,,,0.01,11.0,meteohub,2013-02-24 00:28:00,
2013-02-23 18:33:00,37.2,34.0,29.69,SE,130,6.0,12.0,88,0.00,,,0.01,5.0,meteohub,2013-02-24 00:33:00,
2013-02-23 18:38:00,36.9,33.6,29.69,SE,131,7.0,11.0,88,0.00,,,0.01,0.0,meteohub,2013-02-24 00:38:00,
2013-02-23 18:43:00,36.7,33.8,29.70,SE,128,8.0,10.0,89,0.00,,,0.01,0.0,meteohub,2013-02-24 00:43:00,
2013-02-23 18:48:00,36.7,34.0,29.70,SE,128,9.0,10.0,90,0.00,,,0.01,0.0,meteohub,2013-02-24 00:48:00,
2013-02-23 18:53:00,36.5,33.8,29.69,SE,130,9.0,10.0,90,0.00,,,0.01,0.0,meteohub,2013-02-24 00:53:00,
2013-02-23 18:59:00,36.1,33.8,29.69,SE,129,7.0,10.0,91,0.00,,,0.01,0.0,meteohub,2013-02-24 00:59:00,
2013-02-23 19:04:00,35.8,33.4,29.68,SE,129,7.0,9.0,91,0.00,,,0.01,0.0,meteohub,2013-02-24 01:04:00,
2013-02-23 19:09:00,35.8,33.6,29.68,SE,130,7.0,9.0,92,0.00,,,0.01,0.0,meteohub,2013-02-24 01:09:00,
2013-02-23 19:14:00,35.8,33.6,29.68,SE,128,9.0,9.0,92,0.00,,,0.01,0.0,meteohub,2013-02-24 01:14:00,
2013-02-23 19:19:00,36.0,33.8,29.67,SE,128,7.0,9.0,92,0.00,,,0.01,0.0,meteohub,2013-02-24 01:19:00,
2013-02-23 19:24:00,36.1,34.0,29.67,SE,127,9.0,10.0,92,0.00,,,0.01,0.0,meteohub,2013-02-24 01:24:00,
2013-02-23 19:29:00,36.5,34.3,29.67,ESE,123,12.0,12.0,92,0.00,,,0.01,0.0,meteohub,2013-02-24 01:29:00,
2013-02-23 19:34:00,36.9,34.5,29.67,SE,128,11.0,12.0,91,0.00,,,0.01,0.0,meteohub,2013-02-24 01:34:00,
2013-02-23 19:39:00,36.9,34.5,29.67,SE,127,12.0,13.0,91,0.00,,,0.01,0.0,meteohub,2013-02-24 01:39:00,
2013-02-23 19:44:00,36.7,34.0,29.67,SE,127,12.0,13.0,90,0.00,,,0.01,0.0,meteohub,2013-02-24 01:44:00,
2013-02-23 19:49:00,36.5,33.8,29.67,SE,128,12.0,13.0,90,0.00,,,0.01,0.0,meteohub,2013-02-24 01:49:00,
2013-02-23 19:54:00,36.1,33.4,29.67,SE,130,10.0,14.0,90,0.00,,,0.01,0.0,meteohub,2013-02-24 01:54:00,
2013-02-23 19:59:00,36.0,33.3,29.67,SE,132,7.0,14.0,90,0.00,,,0.01,0.0,meteohub,2013-02-24 01:59:00,
2013-02-23 20:04:00,35.4,32.7,29.67,SE,133,9.0,14.0,90,0.00,,,0.01,0.0,meteohub,2013-02-24 02:04:00,
2013-02-23 20:09:00,35.2,32.5,29.66,SE,131,12.0,13.0,90,0.00,,,0.01,0.0,meteohub,2013-02-24 02:09:00,
2013-02-23 20:14:00,35.2,32.5,29.66,SE,131,10.0,13.0,90,0.00,,,0.01,0.0,meteohub,2013-02-24 02:14:00,
2013-02-23 20:19:00,35.1,32.4,29.66,SE,135,10.0,14.0,90,0.00,,,0.01,0.0,meteohub,2013-02-24 02:19:00,
2013-02-23 20:25:00,35.4,32.7,29.66,SE,134,7.0,14.0,90,0.00,,,0.01,0.0,meteohub,2013-02-24 02:25:00,
2013-02-23 20:30:00,35.4,32.7,29.66,SE,132,9.0,14.0,90,0.00,,,0.01,0.0,meteohub,2013-02-24 02:30:00,
2013-02-23 20:35:00,35.1,32.4,29.66,SE,130,9.0,13.0,90,0.00,,,0.01,0.0,meteohub,2013-02-24 02:35:00,
2013-02-23 20:40:00,34.9,32.2,29.66,SE,127,8.0,13.0,90,0.00,,,0.01,0.0,meteohub,2013-02-24 02:40:00,
2013-02-23 20:45:00,34.9,32.2,29.66,SE,128,9.0,13.0,90,0.00,,,0.01,0.0,meteohub,2013-02-24 02:45:00,
2013-02-23 20:50:00,34.9,32.2,29.66,SE,132,8.0,14.0,90,0.00,,,0.01,0.0,meteohub,2013-02-24 02:50:00,
2013-02-23 20:55:00,34.9,32.2,29.66,SE,137,7.0,14.0,90,0.00,,,0.01,0.0,meteohub,2013-02-24 02:55:00,
2013-02-23 21:00:00,34.9,32.0,29.66,SE,136,8.0,14.0,89,0.00,,,0.01,0.0,meteohub,2013-02-24 03:00:00,
2013-02-23 21:05:00,35.1,32.2,29.66,SE,137,7.0,13.0,89,0.00,,,0.01,0.0,meteohub,2013-02-24 03:05:00,
2013-02-23 21:10:00,35.2,32.4,29.66,SE,146,3.0,13.0,89,0.00,,,0.01,0.0,meteohub,2013-02-24 03:10:00,
2013-02-23 21:15:00,35.4,32.5,29.66,SE,135,5.0,13.0,89,0.00,,,0.01,0.0,meteohub,2013-02-24 03:15:00,
2013-02-23 21:20:00,35.4,32.2,29.66,SE,135,9.0,13.0,88,0.00,,,0.01,0.0,meteohub,2013-02-24 03:20:00,
2013-02-23 21:25:00,35.4,32.2,29.66,SE,137,10.0,15.0,88,0.00,,,0.01,0.0,meteohub,2013-02-24 03:25:00,
2013-02-23 21:30:00,35.2,32.0,29.66,SE,135,6.0,15.0,88,0.00,,,0.01,0.0,meteohub,2013-02-24 03:30:00,
2013-02-23 21:35:00,35.2,32.0,29.65,SE,136,6.0,13.0,88,0.00,,,0.01,0.0,meteohub,2013-02-24 03:35:00,
2013-02-23 21:41:00,35.2,32.0,29.65,SE,144,9.0,13.0,88,0.00,,,0.01,0.0,meteohub,2013-02-24 03:41:00,
2013-02-23 21:46:00,35.6,32.4,29.65,SE,135,16.0,16.0,88,0.00,,,0.01,0.0,meteohub,2013-02-24 03:46:00,
2013-02-23 21:51:00,35.4,32.0,29.64,SE,146,7.0,18.0,87,0.00,,,0.01,0.0,meteohub,2013-02-24 03:51:00,
2013-02-23 21:56:00,35.2,31.8,29.64,SSE,161,9.0,18.0,87,0.00,,,0.01,0.0,meteohub,2013-02-24 03:56:00,
2013-02-23 22:01:00,35.2,32.0,29.64,SE,140,12.0,18.0,88,0.00,,,0.01,0.0,meteohub,2013-02-24 04:01:00,
2013-02-23 22:06:00,35.2,31.8,29.63,SE,142,6.0,18.0,87,0.00,,,0.01,0.0,meteohub,2013-02-24 04:06:00,
2013-02-23 22:11:00,35.1,31.6,29.63,SSE,167,8.0,18.0,87,0.00,,,0.01,0.0,meteohub,2013-02-24 04:11:00,
2013-02-23 22:16:00,34.9,31.5,29.63,South,171,11.0,18.0,87,0.00,,,0.01,0.0,meteohub,2013-02-24 04:16:00,
2013-02-23 22:21:00,34.5,31.3,29.64,South,174,8.0,18.0,88,0.00,,,0.01,0.0,meteohub,2013-02-24 04:21:00,
2013-02-23 22:26:00,34.5,31.3,29.64,South,173,6.0,18.0,88,0.00,,,0.01,0.0,meteohub,2013-02-24 04:26:00,
2013-02-23 22:31:00,34.9,31.5,29.63,SSE,157,8.0,16.0,87,0.00,,,0.01,0.0,meteohub,2013-02-24 04:31:00,
2013-02-23 22:36:00,34.9,31.5,29.63,South,174,9.0,16.0,87,0.00,,,0.01,0.0,meteohub,2013-02-24 04:36:00,
2013-02-23 22:41:00,35.1,31.6,29.62,SSE,163,13.0,18.0,87,0.00,,,0.01,0.0,meteohub,2013-02-24 04:41:00,
2013-02-23 22:46:00,35.1,31.6,29.62,SSE,150,8.0,21.0,87,0.00,,,0.01,0.0,meteohub,2013-02-24 04:46:00,
2013-02-23 22:52:00,34.9,31.1,29.62,SSE,151,7.0,23.0,86,0.00,,,0.01,0.0,meteohub,2013-02-24 04:52:00,
2013-02-23 22:57:00,34.9,31.5,29.62,SSE,167,10.0,23.0,87,0.00,,,0.01,0.0,meteohub,2013-02-24 04:57:00,
2013-02-23 23:00:00,35.1,31.3,29.62,SE,142,9.0,23.0,86,0.00,,,0.01,0.0,meteohub,2013-02-24 05:00:00,
2013-02-23 23:01:00,35.1,31.3,29.62,South,173,14.0,23.0,86,0.00,,,0.01,0.0,meteohub,2013-02-24 05:01:00,
2013-02-23 23:06:00,34.9,31.1,29.62,SSE,166,16.0,22.0,86,0.00,,,0.01,0.0,meteohub,2013-02-24 05:06:00,
2013-02-23 23:11:00,35.1,31.3,29.61,SSE,167,7.0,22.0,86,0.00,,,0.01,0.0,meteohub,2013-02-24 05:11:00,
2013-02-23 23:16:00,34.9,31.1,29.61,South,187,12.0,22.0,86,0.00,,,0.01,0.0,meteohub,2013-02-24 05:16:00,
2013-02-23 23:21:00,34.9,31.1,29.60,SSE,165,9.0,23.0,86,0.00,,,0.01,0.0,meteohub,2013-02-24 05:21:00,
2013-02-23 23:26:00,34.9,31.1,29.60,South,173,14.0,23.0,86,0.00,,,0.01,0.0,meteohub,2013-02-24 05:26:00,
2013-02-23 23:31:00,34.9,31.1,29.60,South,182,13.0,23.0,86,0.00,,,0.01,0.0,meteohub,2013-02-24 05:31:00,
2013-02-23 23:36:00,34.9,30.9,29.60,SSE,165,12.0,24.0,85,0.00,,,0.01,0.0,meteohub,2013-02-24 05:36:00,
2013-02-23 23:41:00,34.5,30.7,29.60,SSW,195,21.0,24.0,86,0.00,,,0.01,0.0,meteohub,2013-02-24 05:41:00,
2013-02-23 23:46:00,34.5,30.7,29.59,South,178,18.0,23.0,86,0.00,,,0.01,0.0,meteohub,2013-02-24 05:46:00,
2013-02-23 23:51:00,34.3,30.6,29.60,South,180,19.0,23.0,86,0.00,,,0.01,0.0,meteohub,2013-02-24 05:51:00,
2013-02-23 23:56:00,34.3,30.6,29.60,South,185,22.0,23.0,86,0.00,,,0.01,0.0,meteohub,2013-02-24 05:56:00,